Time,TemperatureF,DewpointF,PressureIn,WindDirection,WindDirectionDegrees,WindSpeedMPH,WindSpeedGustMPH,Humidity,HourlyPrecipIn,Conditions,Clouds,dailyrainin,SoftwareType,DateUTC
2013-01-17 00:01:00,36.1,35.6,29.97,WNW,287,2.0,6.0,98,0.00,,,0.73,meteohub,2013-01-17 05:01:00,
2013-01-17 00:02:00,36.1,35.6,29.97,West,265,3.0,6.0,98,0.00,,,0.73,meteohub,2013-01-17 05:02:00,
2013-01-17 00:03:00,36.3,35.8,29.97,West,277,3.0,6.0,98,0.00,,,0.73,meteohub,2013-01-17 05:03:00,
2013-01-17 00:08:00,36.3,36.1,29.98,West,279,3.0,5.0,99,0.00,,,0.00,meteohub,2013-01-17 05:08:00,
2013-01-17 00:13:00,36.3,36.1,29.97,West,280,2.0,5.0,99,0.00,,,0.00,meteohub,2013-01-17 05:13:00,
2013-01-17 00:18:00,36.5,36.3,29.98,WNW,283,4.0,5.0,99,0.00,,,0.00,meteohub,2013-01-17 05:18:00,
2013-01-17 00:23:00,36.7,36.5,29.97,WNW,289,4.0,5.0,99,0.00,,,0.00,meteohub,2013-01-17 05:23:00,
2013-01-17 00:28:00,36.7,36.1,29.96,WNW,290,3.0,5.0,98,0.00,,,0.00,meteohub,2013-01-17 05:28:00,
2013-01-17 00:33:00,36.7,36.1,29.97,West,280,3.0,5.0,98,0.00,,,0.00,meteohub,2013-01-17 05:33:00,
2013-01-17 00:38:00,36.7,36.1,29.98,WNW,288,3.0,5.0,98,0.00,,,0.00,meteohub,2013-01-17 05:38:00,
2013-01-17 00:43:00,36.7,36.1,29.96,WNW,302,3.0,6.0,98,0.00,,,0.00,meteohub,2013-01-17 05:43:00,
2013-01-17 00:48:00,36.7,36.1,29.95,NW,309,2.0,6.0,98,0.00,,,0.00,meteohub,2013-01-17 05:48:00,
2013-01-17 00:53:00,36.7,36.1,29.95,NW,310,4.0,6.0,98,0.00,,,0.00,meteohub,2013-01-17 05:53:00,
2013-01-17 00:58:00,36.5,36.0,29.96,WNW,300,3.0,6.0,98,0.00,,,0.00,meteohub,2013-01-17 05:58:00,
2013-01-17 01:03:00,36.5,36.0,29.98,WNW,293,4.0,7.0,98,0.00,,,0.00,meteohub,2013-01-17 06:03:00,
2013-01-17 01:08:00,36.3,35.8,29.97,NW,312,3.0,7.0,98,0.00,,,0.00,meteohub,2013-01-17 06:08:00,
2013-01-17 01:13:00,36.3,35.8,29.97,WNW,285,4.0,7.0,98,0.00,,,0.00,meteohub,2013-01-17 06:13:00,
2013-01-17 01:18:00,36.3,35.8,29.98,WNW,294,5.0,7.0,98,0.00,,,0.00,meteohub,2013-01-17 06:18:00,
2013-01-17 01:23:00,36.3,35.8,29.98,West,281,2.0,5.0,98,0.00,,,0.00,meteohub,2013-01-17 06:23:00,
2013-01-17 01:28:00,36.3,35.8,29.99,WNW,284,2.0,5.0,98,0.00,,,0.00,meteohub,2013-01-17 06:28:00,
2013-01-17 01:33:00,36.3,35.8,29.98,WNW,292,2.0,5.0,98,0.00,,,0.00,meteohub,2013-01-17 06:33:00,
2013-01-17 01:38:00,36.3,35.8,29.99,WNW,292,1.0,5.0,98,0.00,,,0.00,meteohub,2013-01-17 06:38:00,
2013-01-17 01:43:00,36.1,35.6,29.99,West,268,1.0,4.0,98,0.00,,,0.00,meteohub,2013-01-17 06:43:00,
2013-01-17 01:48:00,36.3,35.8,29.99,WNW,283,3.0,4.0,98,0.00,,,0.00,meteohub,2013-01-17 06:48:00,
2013-01-17 01:53:00,36.3,35.8,29.99,WNW,283,3.0,4.0,98,0.00,,,0.00,meteohub,2013-01-17 06:53:00,
2013-01-17 01:58:00,36.3,35.8,29.99,WNW,283,2.0,4.0,98,0.00,,,0.00,meteohub,2013-01-17 06:58:00,
2013-01-17 02:03:00,36.3,35.8,30.00,WNW,285,2.0,4.0,98,0.00,,,0.00,meteohub,2013-01-17 07:03:00,
2013-01-17 02:08:00,36.3,35.8,30.00,West,281,2.0,4.0,98,0.00,,,0.00,meteohub,2013-01-17 07:08:00,
2013-01-17 02:13:00,36.3,35.8,30.00,West,280,2.0,4.0,98,0.00,,,0.00,meteohub,2013-01-17 07:13:00,
2013-01-17 02:18:00,36.5,36.0,30.00,West,281,2.0,4.0,98,0.00,,,0.00,meteohub,2013-01-17 07:18:00,
2013-01-17 02:23:00,36.7,36.1,30.00,West,280,3.0,4.0,98,0.00,,,0.00,meteohub,2013-01-17 07:23:00,
2013-01-17 02:28:00,36.7,36.1,30.00,West,279,2.0,4.0,98,0.00,,,0.00,meteohub,2013-01-17 07:28:00,
2013-01-17 02:34:00,36.7,36.0,29.99,West,279,0.0,4.0,97,0.00,,,0.00,meteohub,2013-01-17 07:34:00,
2013-01-17 02:39:00,36.9,36.1,30.00,West,279,1.0,4.0,97,0.00,,,0.00,meteohub,2013-01-17 07:39:00,
2013-01-17 02:44:00,36.9,36.1,29.99,West,268,3.0,4.0,97,0.00,,,0.00,meteohub,2013-01-17 07:44:00,
2013-01-17 02:49:00,37.0,36.3,29.99,West,269,2.0,4.0,97,0.00,,,0.00,meteohub,2013-01-17 07:49:00,
2013-01-17 02:54:00,37.0,36.0,30.00,West,272,3.0,4.0,96,0.00,,,0.00,meteohub,2013-01-17 07:54:00,
2013-01-17 02:59:00,37.2,36.1,29.99,WNW,286,3.0,5.0,96,0.00,,,0.00,meteohub,2013-01-17 07:59:00,
2013-01-17 03:04:00,37.2,36.1,30.00,WNW,293,5.0,5.0,96,0.00,,,0.00,meteohub,2013-01-17 08:04:00,
2013-01-17 03:09:00,37.2,36.0,29.99,WNW,290,2.0,5.0,95,0.00,,,0.00,meteohub,2013-01-17 08:09:00,
2013-01-17 03:14:00,37.4,35.8,29.99,West,271,4.0,5.0,94,0.00,,,0.00,meteohub,2013-01-17 08:14:00,
2013-01-17 03:19:00,37.8,36.0,29.99,West,278,3.0,8.0,93,0.00,,,0.00,meteohub,2013-01-17 08:19:00,
2013-01-17 03:24:00,37.9,35.8,29.98,West,277,2.0,8.0,92,0.00,,,0.00,meteohub,2013-01-17 08:24:00,
2013-01-17 03:29:00,37.9,35.6,29.98,West,278,2.0,8.0,91,0.00,,,0.00,meteohub,2013-01-17 08:29:00,
2013-01-17 03:34:00,37.9,35.6,29.97,West,267,3.0,5.0,91,0.00,,,0.00,meteohub,2013-01-17 08:34:00,
2013-01-17 03:39:00,38.1,35.4,29.97,West,267,2.0,5.0,90,0.00,,,0.00,meteohub,2013-01-17 08:39:00,
2013-01-17 03:44:00,38.1,35.2,29.98,West,265,3.0,5.0,89,0.00,,,0.00,meteohub,2013-01-17 08:44:00,
2013-01-17 03:49:00,38.3,35.1,29.98,West,273,2.0,6.0,88,0.00,,,0.00,meteohub,2013-01-17 08:49:00,
2013-01-17 03:54:00,38.3,35.1,29.98,West,279,5.0,6.0,88,0.00,,,0.00,meteohub,2013-01-17 08:54:00,
2013-01-17 03:59:00,38.5,34.9,29.98,West,269,3.0,6.0,87,0.00,,,0.00,meteohub,2013-01-17 08:59:00,
2013-01-17 04:04:00,38.3,34.7,29.98,West,277,3.0,5.0,87,0.00,,,0.00,meteohub,2013-01-17 09:04:00,
2013-01-17 04:09:00,38.1,34.5,29.98,West,276,3.0,5.0,87,0.00,,,0.00,meteohub,2013-01-17 09:09:00,
2013-01-17 04:14:00,38.1,34.5,29.99,West,275,2.0,5.0,87,0.00,,,0.00,meteohub,2013-01-17 09:14:00,
2013-01-17 04:19:00,37.9,34.3,29.99,WNW,282,3.0,5.0,87,0.00,,,0.00,meteohub,2013-01-17 09:19:00,
2013-01-17 04:24:00,37.9,34.3,29.99,WNW,282,3.0,6.0,87,0.00,,,0.00,meteohub,2013-01-17 09:24:00,
2013-01-17 04:29:00,37.9,34.3,29.98,WNW,289,2.0,6.0,87,0.00,,,0.00,meteohub,2013-01-17 09:29:00,
2013-01-17 04:34:00,37.9,34.3,29.98,WNW,289,3.0,6.0,87,0.00,,,0.00,meteohub,2013-01-17 09:34:00,
2013-01-17 04:39:00,37.8,34.2,29.99,West,281,2.0,4.0,87,0.00,,,0.00,meteohub,2013-01-17 09:39:00,
2013-01-17 04:44:00,37.8,34.2,29.99,West,281,2.0,4.0,87,0.00,,,0.00,meteohub,2013-01-17 09:44:00,
2013-01-17 04:49:00,37.8,34.2,29.99,West,281,1.0,4.0,87,0.00,,,0.00,meteohub,2013-01-17 09:49:00,
2013-01-17 04:54:00,37.8,34.2,29.99,West,281,2.0,4.0,87,0.00,,,0.00,meteohub,2013-01-17 09:54:00,
2013-01-17 04:59:00,37.8,34.0,29.99,West,259,4.0,4.0,86,0.00,,,0.00,meteohub,2013-01-17 09:59:00,
2013-01-17 05:04:00,37.8,34.0,29.99,West,277,4.0,5.0,86,0.00,,,0.00,meteohub,2013-01-17 10:04:00,
2013-01-17 05:09:00,37.8,34.0,29.99,West,277,2.0,5.0,86,0.00,,,0.00,meteohub,2013-01-17 10:09:00,
2013-01-17 05:14:00,37.6,33.8,29.99,West,281,2.0,5.0,86,0.00,,,0.00,meteohub,2013-01-17 10:14:00,
2013-01-17 05:19:00,37.6,33.8,29.99,WNW,286,3.0,4.0,86,0.00,,,0.00,meteohub,2013-01-17 10:19:00,
2013-01-17 05:24:00,37.8,33.6,30.00,WNW,287,3.0,5.0,85,0.00,,,0.00,meteohub,2013-01-17 10:24:00,
2013-01-17 05:29:00,37.8,33.4,30.01,West,275,4.0,6.0,84,0.00,,,0.00,meteohub,2013-01-17 10:29:00,
2013-01-17 05:34:00,37.9,33.3,30.00,WNW,286,3.0,7.0,83,0.00,,,0.00,meteohub,2013-01-17 10:34:00,
2013-01-17 05:39:00,37.9,32.9,30.01,WNW,286,4.0,7.0,82,0.00,,,0.00,meteohub,2013-01-17 10:39:00,
2013-01-17 05:44:00,37.9,32.9,30.01,WNW,288,4.0,7.0,82,0.00,,,0.00,meteohub,2013-01-17 10:44:00,
2013-01-17 05:49:00,37.9,33.3,30.01,WNW,288,2.0,6.0,83,0.00,,,0.00,meteohub,2013-01-17 10:49:00,
2013-01-17 05:54:00,37.8,33.4,30.01,WNW,288,2.0,6.0,84,0.00,,,0.00,meteohub,2013-01-17 10:54:00,
2013-01-17 05:59:00,37.6,33.3,30.02,West,281,3.0,5.0,84,0.00,,,0.00,meteohub,2013-01-17 10:59:00,
2013-01-17 06:04:00,37.4,33.1,30.01,WNW,296,3.0,5.0,84,0.00,,,0.00,meteohub,2013-01-17 11:04:00,
2013-01-17 06:09:00,37.2,32.9,30.02,WNW,294,3.0,6.0,84,0.00,,,0.00,meteohub,2013-01-17 11:09:00,
2013-01-17 06:15:00,37.2,33.1,30.01,WNW,299,3.0,6.0,85,0.00,,,0.00,meteohub,2013-01-17 11:15:00,
2013-01-17 06:20:00,37.0,32.9,30.01,NW,304,0.0,6.0,85,0.00,,,0.00,meteohub,2013-01-17 11:20:00,
2013-01-17 06:25:00,36.9,32.7,30.02,NW,309,2.0,5.0,85,0.00,,,0.00,meteohub,2013-01-17 11:25:00,
2013-01-17 06:30:00,36.9,32.7,30.03,WNW,302,4.0,6.0,85,0.00,,,0.00,meteohub,2013-01-17 11:30:00,
2013-01-17 06:35:00,36.7,32.5,30.03,WNW,303,3.0,6.0,85,0.00,,,0.00,meteohub,2013-01-17 11:35:00,
2013-01-17 06:40:00,36.5,32.4,30.03,NW,319,2.0,6.0,85,0.00,,,0.00,meteohub,2013-01-17 11:40:00,
2013-01-17 06:45:00,36.3,32.0,30.03,NNW,327,6.0,7.0,84,0.00,,,0.00,meteohub,2013-01-17 11:45:00,
2013-01-17 06:50:00,36.5,31.8,30.02,NNW,348,4.0,8.0,83,0.00,,,0.00,meteohub,2013-01-17 11:50:00,
2013-01-17 06:55:00,36.5,31.3,30.02,NNW,334,5.0,12.0,81,0.00,,,0.00,meteohub,2013-01-17 11:55:00,
2013-01-17 07:00:00,36.7,31.1,30.03,NW,310,4.0,12.0,80,0.00,,,0.00,meteohub,2013-01-17 12:00:00,
2013-01-17 07:05:00,36.5,30.9,30.04,NNW,334,2.0,12.0,80,0.00,,,0.00,meteohub,2013-01-17 12:05:00,
2013-01-17 07:10:00,36.3,30.7,30.05,WNW,302,4.0,9.0,80,0.00,,,0.00,meteohub,2013-01-17 12:10:00,
2013-01-17 07:15:00,36.1,30.6,30.06,NW,309,4.0,9.0,80,0.00,,,0.00,meteohub,2013-01-17 12:15:00,
2013-01-17 07:20:00,36.0,30.4,30.06,WNW,296,1.0,7.0,80,0.00,,,0.00,meteohub,2013-01-17 12:20:00,
2013-01-17 07:25:00,35.8,30.2,30.06,WNW,297,0.0,7.0,80,0.00,,,0.00,meteohub,2013-01-17 12:25:00,
2013-01-17 07:30:00,35.8,30.2,30.06,WNW,297,0.0,7.0,80,0.00,,,0.00,meteohub,2013-01-17 12:30:00,
2013-01-17 07:35:00,35.6,30.4,30.06,WNW,297,0.0,3.0,81,0.00,,,0.00,meteohub,2013-01-17 12:35:00,
2013-01-17 07:40:00,35.4,30.2,30.06,WNW,297,0.0,2.0,81,0.00,,,0.00,meteohub,2013-01-17 12:40:00,
2013-01-17 07:45:00,35.4,30.2,30.06,NW,314,4.0,4.0,81,0.00,,,0.00,meteohub,2013-01-17 12:45:00,
2013-01-17 07:50:00,35.4,30.2,30.07,WNW,292,1.0,6.0,81,0.00,,,0.00,meteohub,2013-01-17 12:50:00,
2013-01-17 07:55:00,35.4,30.2,30.06,NW,313,0.0,6.0,81,0.00,,,0.00,meteohub,2013-01-17 12:55:00,
2013-01-17 08:00:00,35.4,30.2,30.06,WNW,301,3.0,6.0,81,0.00,,,0.00,meteohub,2013-01-17 13:00:00,
2013-01-17 08:05:00,35.4,30.2,30.06,NNW,336,3.0,7.0,81,0.00,,,0.00,meteohub,2013-01-17 13:05:00,
2013-01-17 08:10:00,35.4,30.2,30.07,WNW,301,1.0,7.0,81,0.00,,,0.00,meteohub,2013-01-17 13:10:00,
2013-01-17 08:15:00,35.4,30.2,30.08,NW,304,0.0,7.0,81,0.00,,,0.00,meteohub,2013-01-17 13:15:00,
2013-01-17 08:20:00,35.6,30.4,30.09,NNW,336,0.0,4.0,81,0.00,,,0.00,meteohub,2013-01-17 13:20:00,
2013-01-17 08:25:00,35.8,30.6,30.09,WNW,302,1.0,4.0,81,0.00,,,0.00,meteohub,2013-01-17 13:25:00,
2013-01-17 08:30:00,35.8,30.2,30.09,West,272,1.0,4.0,80,0.00,,,0.00,meteohub,2013-01-17 13:30:00,
2013-01-17 08:35:00,36.0,30.4,30.10,NW,309,2.0,5.0,80,0.00,,,0.00,meteohub,2013-01-17 13:35:00,
2013-01-17 08:40:00,36.1,30.9,30.09,NW,304,2.0,5.0,81,0.00,,,0.00,meteohub,2013-01-17 13:40:00,
2013-01-17 08:45:00,36.1,30.9,30.09,NW,313,2.0,5.0,81,0.00,,,0.00,meteohub,2013-01-17 13:45:00,
2013-01-17 08:50:00,36.3,31.1,30.10,WNW,284,0.0,4.0,81,0.00,,,0.00,meteohub,2013-01-17 13:50:00,
2013-01-17 08:55:00,36.5,31.3,30.10,WNW,283,0.0,4.0,81,0.00,,,0.00,meteohub,2013-01-17 13:55:00,
2013-01-17 09:01:00,36.7,31.1,30.10,WNW,299,2.0,4.0,80,0.00,,,0.00,meteohub,2013-01-17 14:01:00,
2013-01-17 09:06:00,36.7,31.5,30.11,WSW,241,2.0,4.0,81,0.00,,,0.00,meteohub,2013-01-17 14:06:00,
2013-01-17 09:11:00,36.9,31.3,30.11,WSW,241,0.0,4.0,80,0.00,,,0.00,meteohub,2013-01-17 14:11:00,
2013-01-17 09:16:00,37.0,31.5,30.12,WNW,301,3.0,4.0,80,0.00,,,0.00,meteohub,2013-01-17 14:16:00,
2013-01-17 09:21:00,37.2,31.6,30.12,WNW,294,2.0,5.0,80,0.00,,,0.00,meteohub,2013-01-17 14:21:00,
2013-01-17 09:26:00,37.4,32.2,30.11,NW,325,3.0,5.0,81,0.00,,,0.00,meteohub,2013-01-17 14:26:00,
2013-01-17 09:31:00,37.4,32.2,30.10,WNW,294,2.0,5.0,81,0.00,,,0.00,meteohub,2013-01-17 14:31:00,
2013-01-17 09:36:00,37.4,31.8,30.10,NW,307,4.0,5.0,80,0.00,,,0.00,meteohub,2013-01-17 14:36:00,
2013-01-17 09:41:00,37.4,31.8,30.10,NW,313,5.0,5.0,80,0.00,,,0.00,meteohub,2013-01-17 14:41:00,
2013-01-17 09:46:00,37.6,32.4,30.11,NW,316,7.0,7.0,81,0.00,,,0.00,meteohub,2013-01-17 14:46:00,
2013-01-17 09:51:00,37.8,32.2,30.11,NW,313,5.0,7.0,80,0.00,,,0.00,meteohub,2013-01-17 14:51:00,
2013-01-17 09:56:00,37.8,32.2,30.11,WNW,296,3.0,7.0,80,0.00,,,0.00,meteohub,2013-01-17 14:56:00,
2013-01-17 10:01:00,37.8,32.2,30.11,NNW,339,4.0,7.0,80,0.00,,,0.00,meteohub,2013-01-17 15:01:00,
2013-01-17 10:06:00,37.8,31.8,30.12,NW,310,2.0,7.0,79,0.00,,,0.00,meteohub,2013-01-17 15:06:00,
2013-01-17 10:11:00,37.9,32.4,30.12,NW,309,3.0,7.0,80,0.00,,,0.00,meteohub,2013-01-17 15:11:00,
2013-01-17 10:16:00,38.1,32.2,30.11,NW,314,4.0,7.0,79,0.00,,,0.00,meteohub,2013-01-17 15:16:00,
2013-01-17 10:21:00,38.1,31.8,30.12,NNW,333,2.0,6.0,78,0.00,,,0.00,meteohub,2013-01-17 15:21:00,
2013-01-17 10:26:00,38.1,32.2,30.12,NNW,333,1.0,6.0,79,0.00,,,0.00,meteohub,2013-01-17 15:26:00,
2013-01-17 10:31:00,38.1,32.2,30.12,NW,315,4.0,6.0,79,0.00,,,0.00,meteohub,2013-01-17 15:31:00,
2013-01-17 10:36:00,38.1,31.8,30.12,NW,315,3.0,6.0,78,0.00,,,0.00,meteohub,2013-01-17 15:36:00,
2013-01-17 10:41:00,38.1,32.2,30.12,WNW,298,4.0,6.0,79,0.00,,,0.00,meteohub,2013-01-17 15:41:00,
2013-01-17 10:46:00,37.9,32.0,30.12,NW,315,0.0,7.0,79,0.00,,,0.00,meteohub,2013-01-17 15:46:00,
2013-01-17 10:51:00,37.9,32.4,30.12,NW,311,5.0,7.0,80,0.00,,,0.00,meteohub,2013-01-17 15:51:00,
2013-01-17 10:56:00,37.9,32.0,30.12,WNW,300,6.0,7.0,79,0.00,,,0.00,meteohub,2013-01-17 15:56:00,
2013-01-17 11:01:00,37.9,31.6,30.12,NNW,336,3.0,11.0,78,0.00,,,0.00,meteohub,2013-01-17 16:01:00,
2013-01-17 11:06:00,37.9,32.0,30.12,NW,310,4.0,11.0,79,0.00,,,0.00,meteohub,2013-01-17 16:06:00,
2013-01-17 11:11:00,38.3,32.4,30.11,WNW,294,4.0,11.0,79,0.00,,,0.00,meteohub,2013-01-17 16:11:00,
2013-01-17 11:16:00,38.5,32.2,30.12,NW,315,3.0,9.0,78,0.00,,,0.00,meteohub,2013-01-17 16:16:00,
2013-01-17 11:21:00,38.5,31.8,30.12,NW,319,4.0,9.0,77,0.00,,,0.00,meteohub,2013-01-17 16:21:00,
2013-01-17 11:26:00,38.5,32.2,30.12,NW,318,4.0,7.0,78,0.00,,,0.00,meteohub,2013-01-17 16:26:00,
2013-01-17 11:31:00,38.3,32.0,30.12,NNW,340,2.0,7.0,78,0.00,,,0.00,meteohub,2013-01-17 16:31:00,
2013-01-17 11:36:00,38.1,31.8,30.12,NW,316,4.0,8.0,78,0.00,,,0.00,meteohub,2013-01-17 16:36:00,
2013-01-17 11:41:00,37.9,31.5,30.12,WNW,302,3.0,8.0,77,0.00,,,0.00,meteohub,2013-01-17 16:41:00,
2013-01-17 11:46:00,37.9,31.6,30.12,NNW,328,3.0,8.0,78,0.00,,,0.00,meteohub,2013-01-17 16:46:00,
2013-01-17 11:51:00,37.9,32.0,30.11,NW,316,5.0,8.0,79,0.00,,,0.00,meteohub,2013-01-17 16:51:00,
2013-01-17 11:56:00,38.1,31.6,30.11,NNW,332,3.0,9.0,77,0.00,,,0.00,meteohub,2013-01-17 16:56:00,
2013-01-17 12:01:00,38.3,32.0,30.11,NW,311,1.0,9.0,78,0.00,,,0.00,meteohub,2013-01-17 17:01:00,
2013-01-17 12:06:00,38.7,32.4,30.11,NNW,336,1.0,9.0,78,0.00,,,0.00,meteohub,2013-01-17 17:06:00,
2013-01-17 12:11:00,39.0,32.4,30.12,West,274,4.0,9.0,77,0.00,,,0.00,meteohub,2013-01-17 17:11:00,
2013-01-17 12:16:00,39.0,32.4,30.12,NNW,337,3.0,6.0,77,0.00,,,0.00,meteohub,2013-01-17 17:16:00,
2013-01-17 12:21:00,39.0,31.8,30.11,NW,311,6.0,6.0,75,0.00,,,0.00,meteohub,2013-01-17 17:21:00,
2013-01-17 12:26:00,38.8,32.0,30.11,NW,317,5.0,8.0,76,0.00,,,0.00,meteohub,2013-01-17 17:26:00,
2013-01-17 12:31:00,38.7,31.8,30.10,NW,313,2.0,8.0,76,0.00,,,0.00,meteohub,2013-01-17 17:31:00,
2013-01-17 12:36:00,38.7,32.0,30.10,NW,306,4.0,8.0,77,0.00,,,0.00,meteohub,2013-01-17 17:36:00,
2013-01-17 12:42:00,38.7,32.0,30.10,NNW,342,4.0,7.0,77,0.00,,,0.00,meteohub,2013-01-17 17:42:00,
2013-01-17 12:46:00,38.7,31.8,30.09,NW,323,0.0,7.0,76,0.00,,,0.00,meteohub,2013-01-17 17:46:00,
2013-01-17 12:52:00,38.8,32.2,30.09,NW,323,0.0,7.0,77,0.00,,,0.00,meteohub,2013-01-17 17:52:00,
2013-01-17 12:57:00,38.8,32.0,30.09,North,355,3.0,7.0,76,0.00,,,0.00,meteohub,2013-01-17 17:57:00,
2013-01-17 13:02:00,39.0,32.2,30.08,NNW,328,2.0,7.0,76,0.00,,,0.00,meteohub,2013-01-17 18:02:00,
2013-01-17 13:07:00,39.0,31.8,30.08,NW,323,5.0,7.0,75,0.00,,,0.00,meteohub,2013-01-17 18:07:00,
2013-01-17 13:12:00,38.8,31.3,30.08,WNW,299,3.0,7.0,74,0.00,,,0.00,meteohub,2013-01-17 18:12:00,
2013-01-17 13:17:00,39.0,31.8,30.07,NW,305,5.0,7.0,75,0.00,,,0.00,meteohub,2013-01-17 18:17:00,
2013-01-17 13:22:00,38.8,31.6,30.07,NNW,342,3.0,7.0,75,0.00,,,0.00,meteohub,2013-01-17 18:22:00,
2013-01-17 13:27:00,38.8,31.6,30.07,NNW,338,4.0,6.0,75,0.00,,,0.00,meteohub,2013-01-17 18:27:00,
2013-01-17 13:32:00,38.8,31.3,30.08,NW,315,3.0,6.0,74,0.00,,,0.00,meteohub,2013-01-17 18:32:00,
2013-01-17 13:37:00,38.8,31.6,30.09,NW,309,3.0,6.0,75,0.00,,,0.00,meteohub,2013-01-17 18:37:00,
2013-01-17 13:42:00,38.8,31.6,30.09,NW,305,4.0,7.0,75,0.00,,,0.00,meteohub,2013-01-17 18:42:00,
2013-01-17 13:47:00,38.8,31.6,30.08,NNW,333,3.0,7.0,75,0.00,,,0.00,meteohub,2013-01-17 18:47:00,
2013-01-17 13:52:00,38.8,31.6,30.08,NW,313,3.0,7.0,75,0.00,,,0.00,meteohub,2013-01-17 18:52:00,
2013-01-17 13:57:00,38.7,31.1,30.08,NNW,346,5.0,7.0,74,0.00,,,0.00,meteohub,2013-01-17 18:57:00,
2013-01-17 14:02:00,38.7,31.1,30.07,NW,321,2.0,7.0,74,0.00,,,0.00,meteohub,2013-01-17 19:02:00,
2013-01-17 14:07:00,38.5,30.9,30.07,NW,319,3.0,7.0,74,0.00,,,0.00,meteohub,2013-01-17 19:07:00,
2013-01-17 14:12:00,38.3,30.7,30.07,NW,314,3.0,6.0,74,0.00,,,0.00,meteohub,2013-01-17 19:12:00,
2013-01-17 14:17:00,38.1,30.6,30.07,NNW,332,2.0,6.0,74,0.00,,,0.00,meteohub,2013-01-17 19:17:00,
2013-01-17 14:22:00,38.1,30.6,30.07,NNW,342,0.0,6.0,74,0.00,,,0.00,meteohub,2013-01-17 19:22:00,
2013-01-17 14:27:00,38.1,30.9,30.06,WNW,303,0.0,7.0,75,0.00,,,0.00,meteohub,2013-01-17 19:27:00,
2013-01-17 14:32:00,38.1,30.9,30.06,NW,318,0.0,7.0,75,0.00,,,0.00,meteohub,2013-01-17 19:32:00,
2013-01-17 14:37:00,38.1,31.3,30.06,NW,325,1.0,7.0,76,0.00,,,0.00,meteohub,2013-01-17 19:37:00,
2013-01-17 14:42:00,38.1,31.3,30.06,NW,308,4.0,4.0,76,0.00,,,0.00,meteohub,2013-01-17 19:42:00,
2013-01-17 14:47:00,38.1,31.3,30.06,NW,314,1.0,4.0,76,0.00,,,0.00,meteohub,2013-01-17 19:47:00,
2013-01-17 14:52:00,38.3,31.5,30.06,NW,326,1.0,4.0,76,0.00,,,0.00,meteohub,2013-01-17 19:52:00,
2013-01-17 14:57:00,38.1,31.3,30.06,NW,326,1.0,4.0,76,0.00,,,0.00,meteohub,2013-01-17 19:57:00,
2013-01-17 15:02:00,38.1,31.3,30.06,NW,326,0.0,4.0,76,0.00,,,0.00,meteohub,2013-01-17 20:02:00,
2013-01-17 15:07:00,38.1,30.9,30.06,NW,306,2.0,3.0,75,0.00,,,0.00,meteohub,2013-01-17 20:07:00,
2013-01-17 15:12:00,38.1,30.9,30.06,NW,316,0.0,4.0,75,0.00,,,0.00,meteohub,2013-01-17 20:12:00,
2013-01-17 15:17:00,38.1,30.9,30.06,NW,321,0.0,4.0,75,0.00,,,0.00,meteohub,2013-01-17 20:17:00,
2013-01-17 15:22:00,37.9,30.4,30.07,NNW,330,1.0,5.0,74,0.00,,,0.00,meteohub,2013-01-17 20:22:00,
2013-01-17 15:27:00,37.9,30.4,30.07,NNW,330,0.0,5.0,74,0.00,,,0.00,meteohub,2013-01-17 20:27:00,
2013-01-17 15:32:00,37.9,30.4,30.07,NNW,330,2.0,5.0,74,0.00,,,0.00,meteohub,2013-01-17 20:32:00,
2013-01-17 15:37:00,37.8,30.2,30.08,NNW,330,1.0,4.0,74,0.00,,,0.00,meteohub,2013-01-17 20:37:00,
2013-01-17 15:42:00,37.8,30.6,30.08,NNW,330,1.0,4.0,75,0.00,,,0.00,meteohub,2013-01-17 20:42:00,
2013-01-17 15:47:00,37.8,30.6,30.09,NNW,330,0.0,4.0,75,0.00,,,0.00,meteohub,2013-01-17 20:47:00,
2013-01-17 15:52:00,37.8,30.6,30.09,NNW,330,0.0,3.0,75,0.00,,,0.00,meteohub,2013-01-17 20:52:00,
2013-01-17 15:57:00,37.6,30.7,30.09,NNW,330,0.0,3.0,76,0.00,,,0.00,meteohub,2013-01-17 20:57:00,
2013-01-17 16:02:00,37.6,30.7,30.09,NW,317,0.0,3.0,76,0.00,,,0.00,meteohub,2013-01-17 21:02:00,
2013-01-17 16:08:00,37.4,30.2,30.09,NW,317,0.0,3.0,75,0.00,,,0.00,meteohub,2013-01-17 21:08:00,
2013-01-17 16:13:00,37.2,30.0,30.09,NW,323,0.0,3.0,75,0.00,,,0.00,meteohub,2013-01-17 21:13:00,
2013-01-17 16:18:00,37.2,30.4,30.09,NW,323,0.0,3.0,76,0.00,,,0.00,meteohub,2013-01-17 21:18:00,
2013-01-17 16:23:00,37.2,30.4,30.08,NW,323,0.0,3.0,76,0.00,,,0.00,meteohub,2013-01-17 21:23:00,
2013-01-17 16:28:00,37.0,30.2,30.09,NW,323,0.0,1.0,76,0.00,,,0.00,meteohub,2013-01-17 21:28:00,
2013-01-17 16:33:00,37.0,30.2,30.10,NW,323,1.0,0.0,76,0.00,,,0.00,meteohub,2013-01-17 21:33:00,
2013-01-17 16:38:00,37.0,30.2,30.10,NW,323,0.0,2.0,76,0.00,,,0.00,meteohub,2013-01-17 21:38:00,
2013-01-17 16:43:00,36.9,30.4,30.10,NW,323,0.0,2.0,77,0.00,,,0.00,meteohub,2013-01-17 21:43:00,
2013-01-17 16:48:00,36.9,30.4,30.10,NW,323,0.0,2.0,77,0.00,,,0.00,meteohub,2013-01-17 21:48:00,
2013-01-17 16:53:00,36.9,30.4,30.09,NW,323,0.0,1.0,77,0.00,,,0.00,meteohub,2013-01-17 21:53:00,
2013-01-17 16:58:00,36.7,30.6,30.09,NW,323,0.0,0.0,78,0.00,,,0.00,meteohub,2013-01-17 21:58:00,
2013-01-17 17:03:00,36.7,30.6,30.09,NW,323,1.0,0.0,78,0.00,,,0.00,meteohub,2013-01-17 22:03:00,
2013-01-17 17:08:00,36.5,30.6,30.09,NW,323,0.0,2.0,79,0.00,,,0.00,meteohub,2013-01-17 22:08:00,
2013-01-17 17:13:00,36.3,30.4,30.09,NW,323,0.0,2.0,79,0.00,,,0.00,meteohub,2013-01-17 22:13:00,
2013-01-17 17:18:00,36.3,30.7,30.09,NW,323,0.0,2.0,80,0.00,,,0.00,meteohub,2013-01-17 22:18:00,
2013-01-17 17:23:00,36.1,30.9,30.10,NW,323,0.0,0.0,81,0.00,,,0.00,meteohub,2013-01-17 22:23:00,
2013-01-17 17:28:00,36.0,30.7,30.10,NW,323,0.0,1.0,81,0.00,,,0.00,meteohub,2013-01-17 22:28:00,
2013-01-17 17:33:00,36.0,30.9,30.09,NW,323,0.0,1.0,82,0.00,,,0.00,meteohub,2013-01-17 22:33:00,
2013-01-17 17:38:00,35.8,30.7,30.09,NW,323,0.0,1.0,82,0.00,,,0.00,meteohub,2013-01-17 22:38:00,
2013-01-17 17:43:00,35.8,31.1,30.10,NW,323,0.0,0.0,83,0.00,,,0.00,meteohub,2013-01-17 22:43:00,
2013-01-17 17:48:00,35.6,30.9,30.10,NW,323,0.0,0.0,83,0.00,,,0.00,meteohub,2013-01-17 22:48:00,
2013-01-17 17:53:00,35.4,30.7,30.10,NW,323,0.0,1.0,83,0.00,,,0.00,meteohub,2013-01-17 22:53:00,
2013-01-17 17:58:00,35.2,30.9,30.11,NW,323,0.0,2.0,84,0.00,,,0.00,meteohub,2013-01-17 22:58:00,
2013-01-17 18:03:00,35.2,30.9,30.12,NW,323,0.0,2.0,84,0.00,,,0.00,meteohub,2013-01-17 23:03:00,
2013-01-17 18:08:00,35.2,31.1,30.10,NW,323,0.0,2.0,85,0.00,,,0.00,meteohub,2013-01-17 23:08:00,
2013-01-17 18:13:00,35.2,31.1,30.11,NW,323,0.0,2.0,85,0.00,,,0.00,meteohub,2013-01-17 23:13:00,
2013-01-17 18:18:00,35.2,31.1,30.11,NW,323,0.0,2.0,85,0.00,,,0.00,meteohub,2013-01-17 23:18:00,
2013-01-17 18:23:00,35.2,31.1,30.10,NW,323,0.0,1.0,85,0.00,,,0.00,meteohub,2013-01-17 23:23:00,
2013-01-17 18:28:00,35.2,31.1,30.10,NW,323,0.0,0.0,85,0.00,,,0.00,meteohub,2013-01-17 23:28:00,
2013-01-17 18:33:00,35.1,30.9,30.10,NW,323,0.0,0.0,85,0.00,,,0.00,meteohub,2013-01-17 23:33:00,
2013-01-17 18:38:00,35.1,30.9,30.11,NW,323,0.0,0.0,85,0.00,,,0.00,meteohub,2013-01-17 23:38:00,
2013-01-17 18:43:00,34.9,30.9,30.10,NW,323,0.0,0.0,85,0.00,,,0.00,meteohub,2013-01-17 23:43:00,
2013-01-17 18:48:00,34.9,30.9,30.10,NW,323,0.0,1.0,85,0.00,,,0.00,meteohub,2013-01-17 23:48:00,
2013-01-17 18:53:00,34.9,31.1,30.11,NW,323,0.0,1.0,86,0.00,,,0.00,meteohub,2013-01-17 23:53:00,
2013-01-17 18:58:00,34.9,31.1,30.11,NW,323,0.0,1.0,86,0.00,,,0.00,meteohub,2013-01-17 23:58:00,
2013-01-17 19:04:00,34.7,30.9,30.11,NW,323,0.0,0.0,86,0.00,,,0.00,meteohub,2013-01-18 00:04:00,
2013-01-17 19:09:00,34.5,31.1,30.12,NW,323,0.0,1.0,87,0.00,,,0.00,meteohub,2013-01-18 00:09:00,
2013-01-17 19:14:00,34.5,31.1,30.12,NW,323,1.0,1.0,87,0.00,,,0.00,meteohub,2013-01-18 00:14:00,
2013-01-17 19:19:00,34.5,31.1,30.10,NW,323,0.0,1.0,87,0.00,,,0.00,meteohub,2013-01-18 00:19:00,
2013-01-17 19:24:00,34.3,31.1,30.11,NW,323,0.0,1.0,88,0.00,,,0.00,meteohub,2013-01-18 00:24:00,
2013-01-17 19:29:00,34.3,31.1,30.10,NW,323,0.0,1.0,88,0.00,,,0.00,meteohub,2013-01-18 00:29:00,
2013-01-17 19:34:00,34.3,31.1,30.09,NW,323,0.0,0.0,88,0.00,,,0.00,meteohub,2013-01-18 00:34:00,
2013-01-17 19:39:00,34.3,31.1,30.10,NW,323,0.0,0.0,88,0.00,,,0.00,meteohub,2013-01-18 00:39:00,
2013-01-17 19:44:00,34.3,31.1,30.10,NW,323,0.0,0.0,88,0.00,,,0.00,meteohub,2013-01-18 00:44:00,
2013-01-17 19:49:00,34.3,31.1,30.09,NW,323,0.0,0.0,88,0.00,,,0.00,meteohub,2013-01-18 00:49:00,
2013-01-17 19:54:00,34.3,31.1,30.09,NW,323,0.0,0.0,88,0.00,,,0.00,meteohub,2013-01-18 00:54:00,
2013-01-17 19:59:00,34.3,31.1,30.08,NW,323,0.0,0.0,88,0.00,,,0.00,meteohub,2013-01-18 00:59:00,
2013-01-17 20:04:00,34.3,31.1,30.09,NW,323,1.0,0.0,88,0.00,,,0.00,meteohub,2013-01-18 01:04:00,
2013-01-17 20:09:00,34.2,31.3,30.08,NW,323,0.0,2.0,89,0.00,,,0.00,meteohub,2013-01-18 01:09:00,
2013-01-17 20:14:00,34.0,31.1,30.08,NW,323,0.0,2.0,89,0.00,,,0.00,meteohub,2013-01-18 01:14:00,
2013-01-17 20:19:00,34.0,31.1,30.08,NW,323,1.0,2.0,89,0.00,,,0.00,meteohub,2013-01-18 01:19:00,
2013-01-17 20:24:00,34.0,31.1,30.07,NW,323,1.0,2.0,89,0.00,,,0.00,meteohub,2013-01-18 01:24:00,
2013-01-17 20:29:00,34.0,31.1,30.07,NW,323,2.0,2.0,89,0.00,,,0.00,meteohub,2013-01-18 01:29:00,
2013-01-17 20:34:00,34.0,31.1,30.06,NW,323,0.0,2.0,89,0.00,,,0.00,meteohub,2013-01-18 01:34:00,
2013-01-17 20:39:00,34.0,31.1,30.06,NW,323,0.0,2.0,89,0.00,,,0.00,meteohub,2013-01-18 01:39:00,
2013-01-17 20:44:00,34.0,30.7,30.06,NW,323,0.0,2.0,88,0.00,,,0.00,meteohub,2013-01-18 01:44:00,
2013-01-17 20:49:00,34.2,30.9,30.07,NW,323,1.0,2.0,88,0.00,,,0.00,meteohub,2013-01-18 01:49:00,
2013-01-17 20:54:00,34.2,30.9,30.07,NW,323,1.0,2.0,88,0.00,,,0.00,meteohub,2013-01-18 01:54:00,
2013-01-17 20:59:00,34.2,30.9,30.07,NW,323,1.0,2.0,88,0.00,,,0.00,meteohub,2013-01-18 01:59:00,
2013-01-17 21:04:00,34.2,30.9,30.07,NW,323,1.0,2.0,88,0.00,,,0.00,meteohub,2013-01-18 02:04:00,
2013-01-17 21:09:00,34.2,30.7,30.08,NW,323,0.0,2.0,87,0.00,,,0.00,meteohub,2013-01-18 02:09:00,
2013-01-17 21:14:00,34.3,30.9,30.07,NW,323,1.0,2.0,87,0.00,,,0.00,meteohub,2013-01-18 02:14:00,
2013-01-17 21:19:00,34.3,30.9,30.07,NW,323,1.0,2.0,87,0.00,,,0.00,meteohub,2013-01-18 02:19:00,
2013-01-17 21:24:00,34.3,30.9,30.08,NW,323,0.0,2.0,87,0.00,,,0.00,meteohub,2013-01-18 02:24:00,
2013-01-17 21:29:00,34.3,30.9,30.08,NW,323,0.0,2.0,87,0.00,,,0.00,meteohub,2013-01-18 02:29:00,
2013-01-17 21:34:00,34.3,30.9,30.09,NW,323,1.0,2.0,87,0.00,,,0.00,meteohub,2013-01-18 02:34:00,
2013-01-17 21:39:00,34.2,30.7,30.08,NW,323,2.0,2.0,87,0.00,,,0.00,meteohub,2013-01-18 02:39:00,
2013-01-17 21:44:00,34.2,30.7,30.06,NW,323,1.0,2.0,87,0.00,,,0.00,meteohub,2013-01-18 02:44:00,
2013-01-17 21:49:00,34.2,30.9,30.07,NW,323,0.0,2.0,88,0.00,,,0.00,meteohub,2013-01-18 02:49:00,
2013-01-17 21:54:00,34.2,30.9,30.06,NW,323,0.0,2.0,88,0.00,,,0.00,meteohub,2013-01-18 02:54:00,
2013-01-17 21:59:00,34.2,30.9,30.06,NW,323,0.0,2.0,88,0.00,,,0.00,meteohub,2013-01-18 02:59:00,
2013-01-17 22:04:00,34.2,30.9,30.05,NW,323,0.0,2.0,88,0.00,,,0.00,meteohub,2013-01-18 03:04:00,
2013-01-17 22:09:00,34.0,30.7,30.05,NW,323,1.0,2.0,88,0.00,,,0.00,meteohub,2013-01-18 03:09:00,
2013-01-17 22:15:00,34.0,30.7,30.04,NW,323,1.0,2.0,88,0.00,,,0.00,meteohub,2013-01-18 03:15:00,
2013-01-17 22:20:00,34.0,30.7,30.05,NW,323,1.0,2.0,88,0.00,,,0.00,meteohub,2013-01-18 03:20:00,
2013-01-17 22:25:00,34.0,30.7,30.04,NW,323,0.0,2.0,88,0.00,,,0.00,meteohub,2013-01-18 03:25:00,
2013-01-17 22:30:00,34.0,30.7,30.04,NW,323,0.0,2.0,88,0.00,,,0.00,meteohub,2013-01-18 03:30:00,
2013-01-17 22:35:00,34.0,30.7,30.05,NW,323,0.0,2.0,88,0.00,,,0.00,meteohub,2013-01-18 03:35:00,
2013-01-17 22:40:00,33.8,30.6,30.06,NW,323,0.0,1.0,88,0.00,,,0.00,meteohub,2013-01-18 03:40:00,
2013-01-17 22:45:00,33.8,30.4,30.06,NW,323,0.0,0.0,87,0.00,,,0.00,meteohub,2013-01-18 03:45:00,
2013-01-17 22:50:00,33.8,30.4,30.06,NW,323,0.0,0.0,87,0.00,,,0.00,meteohub,2013-01-18 03:50:00,
2013-01-17 22:55:00,34.0,30.6,30.07,NW,323,1.0,1.0,87,0.00,,,0.00,meteohub,2013-01-18 03:55:00,
2013-01-17 23:00:00,34.0,30.2,30.07,NW,323,0.0,2.0,86,0.00,,,0.00,meteohub,2013-01-18 04:00:00,
2013-01-17 23:05:00,34.0,30.2,30.05,NW,323,0.0,2.0,86,0.00,,,0.00,meteohub,2013-01-18 04:05:00,
2013-01-17 23:10:00,34.0,30.2,30.06,NW,323,0.0,2.0,86,0.00,,,0.00,meteohub,2013-01-18 04:10:00,
2013-01-17 23:15:00,34.0,30.2,30.06,NW,323,0.0,2.0,86,0.00,,,0.00,meteohub,2013-01-18 04:15:00,
2013-01-17 23:20:00,34.0,30.2,30.06,NW,323,1.0,1.0,86,0.00,,,0.00,meteohub,2013-01-18 04:20:00,
2013-01-17 23:25:00,34.0,30.2,30.05,NW,323,2.0,2.0,86,0.00,,,0.00,meteohub,2013-01-18 04:25:00,
2013-01-17 23:30:00,34.0,30.6,30.06,NW,323,2.0,3.0,87,0.00,,,0.00,meteohub,2013-01-18 04:30:00,
2013-01-17 23:35:00,34.0,30.6,30.04,NW,323,2.0,4.0,87,0.00,,,0.00,meteohub,2013-01-18 04:35:00,
2013-01-17 23:40:00,34.0,30.6,30.03,NW,320,3.0,4.0,87,0.00,,,0.00,meteohub,2013-01-18 04:40:00,
2013-01-17 23:45:00,34.0,30.2,30.01,NW,315,1.0,4.0,86,0.00,,,0.00,meteohub,2013-01-18 04:45:00,
2013-01-17 23:50:00,34.0,30.0,30.01,NW,321,2.0,4.0,85,0.00,,,0.00,meteohub,2013-01-18 04:50:00,
2013-01-17 23:55:00,34.2,30.2,30.04,WNW,299,2.0,4.0,85,0.00,,,0.00,meteohub,2013-01-18 04:55:00,